Regional Weather Roundup
Issued by NWS

Home | Current Version | Previous Version | Text Only | Print | Product List | Glossary On
Versions: 1 2 3 4 5 6 7 8 9 10 11 12 13 14 15 16 17 18 19 20 21 22 23 24 25 26 27 28 29 30 31 32 33 34 35 36 37 38 39 40 41 42 43 44 45 46 47 48 49 50
000
ASUS43 KDTX 281801
RWRMI
MICHIGAN HOURLY REGIONAL WEATHER ROUNDUP
NATIONAL WEATHER SERVICE DETROIT/PONTIAC MI
200 PM EDT WED SEP 28 2016

NOTE: "FAIR" INDICATES FEW OR NO CLOUDS BELOW 12,000 FEET WITH NO
SIGNIFICANT WEATHER AND/OR OBSTRUCTION TO VISIBILITY.

MIZ047>049-052>055-059>063-066>070-074>076-081>083-281900-
SOUTHEAST LOWER MICHIGAN

CITY           SKY/WX    TMP DP  RH WIND       PRES   REMARKS
ADRIAN         LGT RAIN  54  52  93 NE8       29.91R
6HR MIN TEMP:  50; 6HR MAX TEMP:  60; 6HR PCP: TRACE;

ALMA           PTSUNNY   64  52  63 E13G18    29.97R
ANN ARBOR      LGT RAIN  55  52  89 N7        29.90S
BAD AXE        CLOUDY    62  57  82 NE8       29.96F
6HR MIN TEMP:  47; 6HR MAX TEMP:  66;

CARO           LGT RAIN  64  55  72 E8        29.94R
DETROIT CITY   CLOUDY    61  56  83 S12       29.93R
6HR MIN TEMP:  54; 6HR MAX TEMP:  61; 6HR PCP:  0.05;

DETROIT        CLOUDY    59  54  83 NE8       29.91S
6HR MIN TEMP:  55; 6HR MAX TEMP:  60; 6HR PCP:  0.08;

FLINT          LGT RAIN  60  54  80 N7        29.95R
6HR MIN TEMP:  51; 6HR MAX TEMP:  62; 6HR PCP:  0.03;

GROSSE ILE     CLOUDY    59  54  82 E6        29.91R
6HR MIN TEMP:  56; 6HR MAX TEMP:  64; 6HR PCP:  0.03;

HILLSDALE      PTSUNNY   63  48  59 E9G17     29.88S
HOWELL         LGT RAIN  56  54  92 NE5       29.93S
6HR MIN TEMP:  52; 6HR MAX TEMP:  59;


CITY           SKY/WX    TMP DP  RH WIND       PRES   REMARKS
JACKSON        RAIN      53  50  89 NE9       29.93R
6HR MIN TEMP:  50; 6HR MAX TEMP:  64; 6HR PCP:  0.04;

LAMBERTVILLE   CLOUDY    61  55  81 SE5       29.89S
6HR MIN TEMP:  53; 6HR MAX TEMP:  61;

LANSING        LGT RAIN  58  50  75 NE5       29.94R
6HR MIN TEMP:  50; 6HR MAX TEMP:  66; 6HR PCP:  0.02;

LAPEER         LGT RAIN  61  55  80 S3        29.96R
6HR MIN TEMP:  46; 6HR MAX TEMP:  64;

MASON          RAIN      56  52  86 NE7       29.94R
MONROE         RAIN      57  54  92 CALM      29.89R
6HR MIN TEMP:  52; 6HR MAX TEMP:  58; 6HR PCP:  0.22;

MT. CLEMENS    CLOUDY    65  53  66 E7        29.91R
6HR MIN TEMP:  51; 6HR MAX TEMP:  65; 6HR PCP:  0.01;

PONTIAC        LGT RAIN  57  53  86 NE7       29.92S
6HR MIN TEMP:  52; 6HR MAX TEMP:  59; 6HR PCP:  0.04;

PORT HURON     CLOUDY    64  57  77 CALM      29.94R
TRI CITIES     CLOUDY    63  54  72 NE16G26   29.96R
6HR MIN TEMP:  48; 6HR MAX TEMP:  64;

MIDLAND        FAIR      66  51  59 E15G21    29.97R
6HR MIN TEMP:  46; 6HR MAX TEMP:  66;

TROY           LGT RAIN  60  52  75 E6        29.94R
SAGINAW HB     CLOUDY    64  54  68 N13       29.94R
$$
MIZ043>046-050>051-056>058-064>065-071>073-077>080-281900-
SOUTHWEST LOWER MICHIGAN

CITY           SKY/WX    TMP DP  RH WIND       PRES   REMARKS
BATTLE CREEK   CLOUDY    63  48  58 E9        29.90R
6HR MIN TEMP:  52; 6HR MAX TEMP:  63;

BENTON HARBOR  CLOUDY    56  50  80 VRB6      29.89R
6HR MIN TEMP:  53; 6HR MAX TEMP:  56;

BIG RAPIDS     PTSUNNY   64  47  54 NE9G16    29.97R
6HR MIN TEMP:  51; 6HR MAX TEMP:  64; 6HR PCP:  0.01;

COLDWATER      CLOUDY    63  48  57 NE6       29.88S
6HR MIN TEMP:  51; 6HR MAX TEMP:  63;

FREMONT        FAIR      61  50  66 NE10G17   29.95S
HOLLAND        CLOUDY    60  50  69 NE8       29.92R
6HR MIN TEMP:  52; 6HR MAX TEMP:  60;

GRAND RAPIDS   PTSUNNY   65  49  56 E14G21    29.93R
6HR MIN TEMP:  51; 6HR MAX TEMP:  66; 6HR PCP: TRACE;

IONIA          PTSUNNY   63  48  57 NE15      29.92S
6HR MIN TEMP:  49; 6HR MAX TEMP:  64;

KALAMAZOO      CLOUDY    61  49  64 CALM      29.90R
6HR MIN TEMP:  54; 6HR MAX TEMP:  61;

LUDINGTON      CLOUDY    65  50  58 E8G16     29.97R
6HR MIN TEMP:  50; 6HR MAX TEMP:  65; 6HR PCP:  0.01;

MARSHALL       PTSUNNY   63  47  57 NE7G16    29.89S
6HR MIN TEMP:  51; 6HR MAX TEMP:  66;

MOUNT PLEASANT MOSUNNY   67  51  54 NE13      29.96R
6HR MIN TEMP:  50; 6HR MAX TEMP:  67;

MUSKEGON       CLOUDY    61  51  70 NE10      29.95R
6HR MIN TEMP:  51; 6HR MAX TEMP:  61; 6HR PCP: TRACE;

SOUTH HAVEN    CLOUDY    56  53  87 NE7       29.90R
$$
MIZ016>042-281900-
NORTHERN LOWER MICHIGAN

CITY           SKY/WX    TMP DP  RH WIND       PRES   REMARKS
ALPENA         SUNNY     68  51  54 NE15      30.05R
6HR MIN TEMP:  50; 6HR MAX TEMP:  68;

BEAVER ISLAND  SUNNY     62  52  70 NE12G17   30.08R
6HR MIN TEMP:  51; 6HR MAX TEMP:  63;

BELLAIRE       SUNNY     65  47  52 NE8       30.03R
6HR MIN TEMP:  49; 6HR MAX TEMP:  65;

CADILLAC       MOSUNNY   64  46  51 NE13      29.99R
CHARLEVOIX     SUNNY     64  46  51 NE10      30.08R
FRANKFORT      SUNNY     64  49  57 NE7       30.02R
GAYLORD        SUNNY     62  47  57 NE9       30.04R
6HR MIN TEMP:  49; 6HR MAX TEMP:  62;

GRAYLING       SUNNY     66  48  51 NE8G21    30.02R
HARBOR SPRINGS SUNNY     64  52  65 NE12      30.06S
HOUGHTON LAKE  SUNNY     66  46  48 NE14      30.00S
6HR MIN TEMP:  48; 6HR MAX TEMP:  66;

MANISTEE       SUNNY     65  50  58 E13       29.99R
OSCODA         MOSUNNY   65  52  63 NE16      29.99S
6HR MIN TEMP:  48; 6HR MAX TEMP:  67;

PELLSTON       MOSUNNY   65  50  58 E9        30.07R
6HR MIN TEMP:  47; 6HR MAX TEMP:  65;

ROGERS CITY    SUNNY     64  54  72 NE7       30.08R
TRAVERSE CITY  MOSUNNY   65  48  54 N8        30.01R
6HR MIN TEMP:  51; 6HR MAX TEMP:  65;

$$
MIZ007>008-015-281900-
EASTERN UPPER MICHIGAN

CITY           SKY/WX    TMP DP  RH WIND       PRES   REMARKS
KINROSS        PTSUNNY   62  53  72 E10G16    30.10R
6HR MIN TEMP:  51; 6HR MAX TEMP:  63; 6HR PCP:  0.01;

MACKINAC ISLAN SUNNY     62  51  67 NE8       30.08S
NEWBERRY       CLOUDY    58  55  89 NE9       30.10S
6HR MIN TEMP:  45; 6HR MAX TEMP:  58;

S. S. MARIE    PTSUNNY   65  55  70 E10       30.09R
6HR MIN TEMP:  54; 6HR MAX TEMP:  65; 6HR PCP: TRACE;

MUNISING         N/A     64  57  78 NE15      30.10R
6HR MIN TEMP:  49; 6HR MAX TEMP:  64;

$$
MIZ004>006-011>014-085-281900-
CENTRAL UPPER MICHIGAN

CITY           SKY/WX    TMP DP  RH WIND       PRES   REMARKS
MANISTIQUE     CLOUDY    62  52  71 NE8G17    30.09R
6HR MIN TEMP:  48; 6HR MAX TEMP:  63;

ESCANABA       CLOUDY    61  50  67 NE10      30.09R
6HR MIN TEMP:  52; 6HR MAX TEMP:  61; 6HR PCP:  0.01;

SAWYER-GWINN   PTSUNNY   57  52  82 NE14      30.11S
$$
MIZ001>003-009>011-084-281900-
WESTERN UPPER MICHIGAN

CITY           SKY/WX    TMP DP  RH WIND       PRES   REMARKS
IRON MOUNTAIN  PTSUNNY   60  46  59 NE8       30.09R
6HR MIN TEMP:  51; 6HR MAX TEMP:  62;

HOUGHTON       CLOUDY    58  51  78 NE3       30.17R
6HR MIN TEMP:  52; 6HR MAX TEMP:  58; 6HR PCP:  0.01;

COPPER HARBOR    N/A     59  50  72 E10G18    30.18R
6HR MIN TEMP:  57; 6HR MAX TEMP:  61;

IRONWOOD       LGT RAIN  55  54  96 NE12G17   30.18R FOG
6HR MIN TEMP:  52; 6HR MAX TEMP:  56;

$$

ABBREVIATIONS USED IN REMARKS
   TC - TEMPERATURE IN CELSIUS
  WCI - WIND CHILL INDEX
   HX - HEAT INDEX
  VSB - VISIBILITY





USA.gov is the U.S. government's official web portal to all federal, state and local government web resources and services.